Location: Kitchener
(43.4500°N, 80.5000°W)
Time: 06:59:07
(UTC-05:00)

Daily predictions for brighter satellites

Satellite Brightness Start Highest point End
(mag) Time Altitude Azimuth Time Altitude Azimuth Time Altitude Azimuth
Cosmos 405 3.0 18:26:18 10° S 18:29:48 89° W 18:33:21 10° N
SeaSat 1 4.0 18:26:38 10° E 18:29:49 17° NE 18:32:59 10° N
Cosmos 1908 Rocket 4.0 18:26:35 10° SSE 18:30:45 40° E 18:34:56 10° NNE
MTI 4.0 18:28:00 10° NNE 18:31:06 47° E 18:34:12 10° S
YAOGAN 1 3.0 18:28:44 10° S 18:33:02 70° WSW 18:37:22 10° NNW
H-2A R/B 3.4 18:29:45 10° SE 18:33:20 35° ENE 18:36:54 10° N
Cosmos 1733 Rocket 3.2 18:29:59 10° SSW 18:34:17 78° W 18:38:37 10° N
Aureole 3 3.8 18:29:31 10° S 18:35:05 69° E 18:39:25 10° NNE
Cosmos 1603 4.4 18:33:03 10° N 18:38:07 32° NE 18:43:07 10° ESE
NOSS 3-2 (C) 4.3 18:38:43 10° WSW 18:44:33 52° NW 18:51:05 10° NNE
Cosmos 2034 Rocket 4.3 18:38:26 10° N 18:44:37 48° ENE 18:50:43 10° SSE
SJ-6B 4.0 18:41:41 10° ESE 18:44:38 22° ENE 18:47:39 10° NNE
Cosmos 1812 3.0 18:43:03 10° NNW 18:46:56 73° W 18:50:47 10° S
Meteor 1-20 Rocket 4.3 18:42:19 10° S 18:47:58 66° E 18:53:45 10° NNE
SKYMED 2 4.0 18:44:30 10° N 18:48:49 68° WNW 18:53:07 10° SSW
Envisat 4.0 18:45:19 10° ESE 18:49:25 25° ENE 18:53:30 10° N
MOS 1 4.5 18:45:55 10° SSE 18:51:35 81° WSW 18:57:18 10° NNW
Cosmos 468 4.5 18:47:10 10° SSW 18:52:26 85° ESE 18:57:41 10° NNE
Cosmos 2263 Rocket 3.6 18:49:16 10° SE 18:52:27 16° E 18:55:39 10° ENE
Cosmos 1975 Rocket 3.5 18:51:57 10° N 18:56:09 40° ENE 19:00:22 10° SSE
ATLAS CENTAUR R/B 3.0 18:53:22 10° N 18:56:20 19° NE 18:58:21 14° ENE
CZ-2D R/B 4.3 18:54:14 10° SE 18:57:28 25° ENE 19:00:44 10° NNE
HJ-1C 4.2 18:55:19 10° SE 18:58:23 31° ENE 19:01:27 10° N
Okean 1 3.3 18:54:38 10° N 18:58:36 59° E 19:02:30 10° SSE
CENTAUR R/B 2.6 18:52:42 10° SW 18:58:43 87° NW 19:05:42 10° NE
Meteor 1-14 Rocket 4.4 18:53:52 10° S 18:59:41 84° W 19:05:40 10° N
Cosmos 1110 Rocket 4.5 18:57:46 10° N 19:02:45 40° ENE 19:07:44 10° SE
Cosmos 1602 4.1 19:00:54 10° SSE 19:04:33 40° E 19:08:12 10° NNE
Thor Agena Rocket 4.1 19:01:23 10° NE 19:05:55 32° E 19:10:24 10° SSE
USA 267 4.3 19:01:04 12° ENE 19:06:11 30° NNE 19:11:43 10° NW
Cosmos 1269 Rocket 4.0 19:01:32 10° S 19:06:45 66° ESE 19:12:00 10° NNE
Meteor 1-4 Rocket 3.4 19:04:18 10° SSE 19:07:15 26° E 19:10:17 10° NE
BREEZE-M R/B 3.2 19:06:35 10° WNW 19:08:59 83° NNE 19:14:37 13° ESE
USA 32 4.0 19:04:49 10° S 19:10:00 70° E 19:15:13 10° N
Cosmos 1378 Rocket 4.1 19:11:23 10° NNW 19:15:45 62° W 19:20:07 10° S
Resurs 01 Rocket 2.7 19:15:19 21° E 19:16:41 25° ENE 19:20:16 10° NNE
OAO 2 Rocket 4.5 19:12:31 10° WSW 19:16:52 31° S 19:19:59 16° SE
FREGAT/IRIS 2.5 19:15:55 10° SSE 19:18:52 86° WSW 19:21:52 10° NNW
EO 1 Del DPAF 3.8 19:15:26 10° N 19:19:13 61° WNW 19:22:59 10° SSW
Meteor 2-4 Rocket 4.0 19:14:30 10° N 19:20:01 43° ENE 19:25:20 10° SE
Cosmos 2227 4.2 19:14:50 10° S 19:20:29 64° ESE 19:26:07 10° NNE
Iridium 4 Rocket 3.4 19:17:40 10° N 19:22:27 74° W 19:26:48 10° S
YAOGAN 6 4.3 19:26:58 18° NE 19:26:58 18° NE 19:28:32 10° NNE
Cosmos 1536 Rocket 4.5 19:22:50 10° NNE 19:26:35 27° ENE 19:26:42 27° ENE
CZ-4C R/B 3.3 19:20:47 10° NNW 19:27:26 44° NE 19:31:56 23° ESE
Alouette 2 Rocket 3.7 19:24:23 10° SSE 19:27:39 35° E 19:31:10 10° NNE
Cosmos 1437 Rocket 2.9 19:24:05 10° SSW 19:28:09 79° W 19:32:17 10° N
Meteor 1-19 Rocket 4.1 19:23:12 10° N 19:28:45 73° ENE 19:34:18 10° SSE
Cosmos 1782 Rocket 3.6 19:24:24 10° S 19:28:50 84° W 19:33:15 10° N
SL-8 R/B 4.2 19:24:28 10° W 19:29:10 53° NNW 19:31:56 23° NE
Cosmos 1331 Rocket 4.0 19:27:33 10° NNW 19:32:51 64° ENE 19:37:33 13° SSE
Meteor 1-11 Rocket 3.7 19:33:16 10° S 19:38:43 59° E 19:44:20 10° NNE
Spot 2 Rocket 4.0 19:37:43 31° E 19:38:56 36° ENE 19:43:32 10° N
Cosmos 1943 3.3 19:37:15 10° NNW 19:42:49 57° ENE 19:45:39 29° SE
Tsikada Rocket 4.1 19:37:23 10° S 19:43:49 88° W 19:50:16 10° N
USA 186 2.8 19:46:06 34° NNE 19:46:06 34° NNE 19:48:17 10° N
Gbstr 26 Del rocket 2.5 19:43:15 10° SW 19:46:59 84° SE 19:47:47 54° ENE
Cosmos 2251 Rocket 3.6 19:48:56 10° S 19:53:58 50° ESE 19:56:08 31° NE
Okean 2 Rocket 3.3 19:50:46 10° SSW 19:55:08 72° W 19:59:34 10° N
ARGOS Delta rocket 3.7 19:50:57 10° N 19:55:48 86° W 20:00:20 10° SSW
ERS-2 4.2 19:55:25 10° SSW 19:58:40 29° W 20:01:56 10° NW
Cosmos 1939 Rocket 3.0 20:01:06 57° NE 20:01:06 57° NE 20:04:42 10° N
Cosmos 1302 Rocket 3.9 19:59:07 10° NNW 20:04:19 67° ENE 20:05:18 54° ESE
Cosmos 2151 Rocket 3.4 20:00:17 10° S 20:04:44 77° E 20:09:13 10° NNE
SeaSat 1 2.4 20:04:38 35° SSE 20:06:45 84° WSW 20:11:43 10° NNW
COSMOS 2455 2.8 20:07:13 10° SSW 20:13:14 90° WNW 20:17:38 20° NNE
Cosmos 1184 Rocket 4.0 20:10:46 10° NNW 20:13:29 41° WNW 20:13:29 41° WNW
Meteor 1-23 Rocket 4.1 20:08:27 10° N 20:14:19 78° E 20:16:31 40° SSE
USA 215 3.1 20:11:44 37° ENE 20:14:33 74° SE 20:21:04 10° SW
Meteor 2-9 4.5 20:12:08 10° S 20:17:33 87° E 20:23:05 10° N
Cosmos 2279 Rocket 3.9 20:12:51 10° N 20:19:02 62° E 20:19:44 58° ESE
Envisat 4.1 20:23:23 10° S 20:28:12 42° W 20:33:01 10° NNW
Resurs 1-3 4.2 20:33:27 52° WSW 20:33:40 53° W 20:37:59 10° NNW
ATLAS CENTAUR R/B 2.3 20:31:28 10° NW 20:34:39 48° WNW 20:34:39 48° WNW
Cosmos 2263 Rocket 2.2 20:30:06 10° SSW 20:35:39 75° WNW 20:37:36 42° NNE
USA 267 3.4 20:48:25 60° NNE 20:48:26 60° NNE 20:54:50 10° NW
CENTAUR R/B 4.5 20:45:14 10° W 20:50:29 26° NNW 20:56:21 10° NNE
Resurs 01 Rocket 3.1 20:52:52 33° W 20:53:00 33° W 20:57:01 10° NNW
H-2A R/B 4.2 21:18:36 20° N 21:18:36 20° N 21:20:09 10° N
CZ-4C R/B 3.4 21:09:14 10° NW 21:16:18 54° WSW 21:17:10 51° SW
USA 215 4.5 21:59:06 36° WNW 21:59:06 36° WNW 22:03:24 10° W
